CW5316 Weather Reports


Display with metric or nautical units.
time (UTC)temp
F
wind
direction
speed
MPH
gust
MPH
rain 1hr
in
rain 24hr
in
rain mn
in
humidity
%
barometer
mb
20260904101545 49 0 0.0 0.0 0.00 0.21 0.00 96 1011.3
20260904101024 49 0 0.0 1.0 0.00 0.21 0.00 96 1011.3
20260904100524 49 0 0.0 1.0 0.00 0.21 0.00 96 1011.3
20260904100100 49 0 0.0 0.0 0.00 0.21 0.00 96 1011.2
20260904095523 49 0 0.0 0.0 0.00 0.21 0.00 96 1011.3
20260904095024 49 0 0.0 0.0 0.00 0.21 0.00 96 1011.2
20260904094558 49 0 0.0 0.0 0.00 0.21 0.00 96 1011.3
20260904094023 49 0 0.0 0.0 0.00 0.21 0.00 96 1011.3
20260904093530 49 0 0.0 0.0 0.00 0.21 0.00 96 1011.3
20260904093047 49 0 0.0 0.0 0.00 0.21 0.00 96 1011.3
20260904092524 49 0 0.0 0.0 0.00 0.21 0.00 96 1011.2
20260904092024 49 0 0.0 0.0 0.00 0.21 0.00 96 1011.3
20260904091543 49 0 0.0 1.0 0.00 0.21 0.00 96 1011.4
20260904091025 49 0 0.0 1.0 0.00 0.21 0.00 96 1011.4
20260904090530 49 278 0.0 1.0 0.00 0.21 0.00 96 1011.4
20260904090047 49 0 0.0 0.0 0.00 0.21 0.00 96 1011.4
20260904085523 49 0 0.0 0.0 0.00 0.21 0.00 96 1011.4
20260904085029 49 0 0.0 0.0 0.00 0.21 0.00 96 1011.3
20260904084547 49 0 0.0 0.0 0.00 0.21 0.00 96 1011.4
20260904084025 49 0 0.0 0.0 0.00 0.21 0.00 96 1011.4
20260904083529 49 0 0.0 0.0 0.00 0.21 0.00 96 1011.4
20260904083047 49 0 0.0 0.0 0.00 0.21 0.00 96 1011.5
20260904082525 49 0 0.0 0.0 0.00 0.21 0.00 96 1011.4
20260904082024 49 0 0.0 0.0 0.00 0.21 0.00 96 1011.5
20260904081550 49 0 0.0 0.0 0.00 0.21 0.00 96 1011.4
20260904081024 49 0 0.0 0.0 0.00 0.21 0.00 96 1011.5
20260904080523 50 0 0.0 0.0 0.00 0.21 0.00 96 1011.6
20260904080048 50 0 0.0 0.0 0.00 0.21 0.00 96 1011.6
20260904075526 50 0 0.0 0.0 0.00 0.21 0.00 96 1011.6
20260904075025 50 0 0.0 0.0 0.00 0.21 0.00 96 1011.6
20260904074551 50 0 0.0 0.0 0.00 0.21 0.00 96 1011.8
20260904074027 50 0 0.0 0.0 0.00 0.21 0.00 96 1011.6
20260904073525 50 0 0.0 0.0 0.00 0.21 0.00 96 1011.5
20260904073044 50 0 0.0 0.0 0.00 0.21 0.00 96 1011.3
20260904072524 49 0 0.0 1.0 0.00 0.21 0.00 96 1011.1
20260904072023 49 0 0.0 1.0 0.00 0.21 0.00 96 1011.0
20260904071543 50 0 0.0 0.0 0.00 0.21 0.00 96 1011.0
20260904071024 50 0 0.0 0.0 0.00 0.21 0.00 96 1011.1
20260904070523 50 0 0.0 1.0 0.00 0.21 0.00 96 1011.3
20260904070052 50 0 0.0 1.0 0.00 0.21 0.00 96 1011.4
20260904065531 50 0 0.0 2.0 0.00 0.21 0.21 96 1011.5
20260904065022 50 0 0.0 2.0 0.00 0.21 0.21 96 1011.6
20260904064551 50 0 0.0 0.0 0.01 0.21 0.21 96 1011.6
20260904064029 50 0 0.0 0.0 0.01 0.21 0.21 96 1011.7
20260904063524 50 0 0.0 0.0 0.01 0.21 0.21 96 1011.7
20260904063050 50 0 0.0 0.0 0.01 0.21 0.21 96 1011.8
20260904062528 50 0 0.0 0.0 0.01 0.21 0.21 96 1011.8
20260904062030 50 0 0.0 0.0 0.01 0.21 0.21 96 1011.6
20260904061550 50 0 0.0 0.0 0.01 0.21 0.21 96 1011.6
20260904061027 50 0 0.0 0.0 0.01 0.21 0.21 96 1011.6
20260904060524 50 0 0.0 2.0 0.01 0.21 0.21 96 1011.6
20260904060112 50 0 0.0 2.0 0.02 0.21 0.21 96 1011.5
20260904055525 50 0 0.0 0.0 0.02 0.21 0.21 96 1011.6
20260904055024 50 0 0.0 0.0 0.02 0.21 0.21 96 1011.6
20260904054546 50 0 0.0 0.0 0.01 0.20 0.20 96 1011.6
20260904054024 50 0 0.0 0.0 0.01 0.20 0.20 96 1011.5
20260904053527 50 0 0.0 0.0 0.01 0.20 0.20 96 1011.5
20260904053135 50 0 0.0 0.0 0.02 0.20 0.20 95 1011.5
20260904052519 50 0 0.0 0.0 0.02 0.20 0.20 95 1011.5
20260904052023 50 0 0.0 1.0 0.03 0.20 0.20 95 1011.4
20260904051601 50 0 0.0 1.0 0.04 0.20 0.20 95 1011.5
20260904051026 50 0 0.0 1.0 0.05 0.20 0.20 95 1011.5
20260904050525 50 0 0.0 1.0 0.05 0.20 0.20 95 1011.6
20260904050052 50 0 0.0 0.0 0.04 0.19 0.19 95 1011.6
20260904045527 50 0 0.0 0.0 0.04 0.19 0.19 95 1011.6
20260904045024 50 0 0.0 0.0 0.04 0.19 0.19 95 1011.6
20260904044559 50 0 0.0 0.0 0.04 0.19 0.19 95 1011.6
20260904044023 50 0 0.0 1.0 0.04 0.19 0.19 94 1011.6
20260904043523 50 0 0.0 1.0 0.04 0.19 0.19 94 1011.6
20260904043048 50 0 0.0 0.0 0.03 0.18 0.18 94 1011.6
20260904042524 50 0 0.0 1.0 0.02 0.17 0.17 94 1011.6
20260904042025 50 0 0.0 3.0 0.02 0.17 0.17 93 1011.6
20260904041543 50 0 0.0 3.0 0.01 0.16 0.16 93 1011.7
20260904041024 51 0 0.0 3.0 0.00 0.15 0.15 94 1011.8
20260904040523 51 0 0.0 3.0 0.00 0.15 0.15 94 1011.7
20260904040052 51 0 0.0 1.0 0.00 0.15 0.15 94 1011.8
20260904035527 51 0 0.0 3.0 0.00 0.15 0.15 94 1011.8
20260904035028 51 0 0.0 3.0 0.00 0.15 0.15 94 1011.8
20260904034546 51 0 0.0 2.0 0.00 0.15 0.15 95 1011.6
20260904034045 51 0 0.0 5.0 0.00 0.15 0.15 95 1011.5
20260904033525 51 0 0.0 5.0 0.00 0.15 0.15 95 1011.4
20260904033058 51 0 0.0 3.0 0.00 0.15 0.15 95 1011.4
20260904032522 51 0 0.0 2.0 0.00 0.15 0.15 95 1011.3
20260904032022 51 0 0.0 1.0 0.00 0.15 0.15 95 1011.2
20260904031541 51 0 0.0 3.0 0.00 0.15 0.15 95 1011.2
20260904031023 51 84 0.0 3.0 0.00 0.15 0.15 95 1011.1
20260904030524 51 262 0.0 1.0 0.00 0.15 0.15 95 1011.0
20260904030052 51 0 0.0 0.0 0.00 0.15 0.15 95 1011.0
20260904025524 51 0 0.0 0.0 0.00 0.16 0.15 95 1011.0
20260904025024 51 0 0.0 0.0 0.00 0.16 0.15 95 1010.9
20260904024551 51 0 0.0 0.0 0.00 0.16 0.15 95 1011.0
20260904024024 52 0 0.0 0.0 0.00 0.16 0.15 94 1010.9
20260904023524 52 0 0.0 0.0 0.00 0.16 0.15 94 1010.9
20260904023054 52 0 0.0 0.0 0.00 0.16 0.15 94 1011.0
20260904022524 52 0 0.0 0.0 0.00 0.16 0.15 94 1010.9
20260904022025 52 0 0.0 0.0 0.00 0.16 0.15 94 1010.8
20260904021544 52 0 0.0 0.0 0.00 0.16 0.15 94 1010.8
20260904021022 52 0 0.0 0.0 0.01 0.16 0.15 94 1010.8
20260904020523 52 0 0.0 0.0 0.01 0.16 0.15 94 1010.7
20260904020041 52 0 0.0 0.0 0.01 0.16 0.15 94 1010.8
20260904015522 53 0 0.0 1.0 0.01 0.38 0.15 94 1010.9
20260904015025 53 0 0.0 2.0 0.01 0.38 0.15 94 1010.8
20260904014557 53 0 0.0 2.0 0.01 0.38 0.15 94 1010.8
20260904014024 53 0 0.0 3.0 0.01 0.38 0.15 94 1010.6
20260904013521 53 0 0.0 3.0 0.01 0.38 0.15 94 1010.6
20260904013047 53 0 0.0 1.0 0.01 0.38 0.15 94 1010.8
20260904012525 53 0 0.0 1.0 0.01 0.38 0.15 94 1010.8
20260904012025 53 0 0.0 1.0 0.01 0.38 0.15 94 1010.7
20260904011548 54 0 0.0 1.0 0.02 0.38 0.15 94 1010.7
20260904011022 54 0 0.0 1.0 0.02 0.37 0.14 95 1010.8
20260904010530 54 0 0.0 0.0 0.03 0.37 0.14 95 1010.8
20260904010045 54 0 0.0 0.0 0.04 0.37 0.14 94 1010.8
20260904005528 54 0 0.0 0.0 0.04 0.37 0.14 95 1010.8
20260904005025 54 0 0.0 0.0 0.04 0.37 0.14 94 1010.8
20260904004548 54 0 0.0 0.0 0.06 0.37 0.14 94 1010.6
20260904004024 54 0 0.0 0.0 0.07 0.37 0.14 94 1010.6
20260904003532 54 0 0.0 0.0 0.09 0.37 0.14 94 1010.7
20260904003049 54 0 0.0 0.0 0.11 0.37 0.14 94 1010.6
20260904002523 54 0 0.0 0.0 0.11 0.37 0.14 94 1010.5
20260904002026 54 0 0.0 0.0 0.11 0.37 0.14 94 1010.6
20260904001545 54 0 0.0 0.0 0.10 0.36 0.13 93 1010.6
20260904001027 54 0 0.0 0.0 0.09 0.35 0.12 93 1010.7
20260904000521 54 0 0.0 0.0 0.08 0.34 0.11 93 1010.8
20260904000108 54 0 0.0 0.0 0.07 0.33 0.10 92 1010.8
20260903235526 55 0 0.0 0.0 0.07 0.41 0.10 92 1010.8
20260903235024 55 0 0.0 0.0 0.06 0.40 0.09 91 1010.7
20260903234552 56 0 0.0 0.0 0.05 0.39 0.08 90 1010.8
20260903234023 56 0 0.0 0.0 0.03 0.37 0.06 87 1010.8
20260903233529 57 0 0.0 0.0 0.02 0.36 0.05 86 1010.8
20260903233107 58 0 0.0 0.0 0.00 0.34 0.03 83 1010.8
20260903232524 58 0 0.0 0.0 0.00 0.34 0.03 83 1010.7
20260903232024 58 0 0.0 0.0 0.00 0.34 0.03 82 1010.6
20260903231549 58 0 0.0 1.0 0.00 0.34 0.03 80 1010.5
20260903231023 59 0 0.0 1.0 0.00 0.34 0.03 80 1010.6
20260903230524 59 0 0.0 0.0 0.00 0.34 0.03 78 1010.5
20260903230106 59 0 0.0 0.0 0.00 0.34 0.03 75 1010.5
20260903225523 59 0 0.0 1.0 0.00 0.36 0.03 76 1010.5
20260903225024 60 0 0.0 1.0 0.00 0.36 0.03 73 1010.5
20260903224559 60 0 0.0 1.0 0.00 0.36 0.03 72 1010.4
20260903224024 60 0 0.0 2.0 0.00 0.36 0.03 71 1010.3
20260903223530 60 0 0.0 2.0 0.00 0.36 0.03 71 1010.2
20260903223108 60 0 0.0 2.0 0.00 0.36 0.03 69 1010.3
20260903222522 61 0 0.0 1.0 0.00 0.36 0.03 70 1010.2
20260903222023 61 0 0.0 4.0 0.00 0.36 0.03 69 1010.3
20260903221549 60 0 0.0 4.0 0.00 0.36 0.03 69 1010.2
20260903221025 61 0 1.0 4.0 0.00 0.36 0.03 68 1010.3
20260903220526 61 0 0.0 3.0 0.00 0.36 0.03 68 1010.3
20260903220046 61 0 0.0 3.0 0.00 0.36 0.03 68 1010.2
20260903215526 61 0 0.0 1.0 0.00 0.37 0.03 68 1010.2
20260903215024 61 0 0.0 1.0 0.00 0.37 0.03 69 1010.2
20260903214550 61 0 0.0 2.0 0.00 0.37 0.03 65 1010.1
20260903214024 61 115 0.0 2.0 0.00 0.37 0.03 66 1010.2
20260903213522 61 0 0.0 2.0 0.00 0.37 0.03 68 1010.2
20260903213106 61 0 0.0 2.0 0.00 0.37 0.03 66 1010.2
20260903212524 61 116 0.0 1.0 0.00 0.37 0.03 65 1010.2
20260903212024 61 0 0.0 4.0 0.00 0.37 0.03 67 1010.2
20260903211546 61 0 0.0 7.0 0.00 0.37 0.03 68 1010.2
20260903211026 61 0 1.0 7.0 0.00 0.37 0.03 67 1010.1
20260903210526 62 100 2.0 7.0 0.00 0.37 0.03 66 1010.1
20260903210111 61 111 1.0 6.0 0.00 0.37 0.03 68 1010.0
20260903205525 61 0 1.0 4.0 0.00 0.37 0.03 68 1010.0
20260903205024 62 0 0.0 4.0 0.00 0.37 0.03 66 1010.0
20260903204544 62 0 0.0 5.0 0.00 0.37 0.03 66 1009.9
20260903204027 61 106 0.0 5.0 0.00 0.37 0.03 63 1009.9
20260903203522 61 0 1.0 5.0 0.00 0.37 0.03 63 1009.9
20260903203052 61 0 1.0 4.0 0.00 0.37 0.03 65 1009.9
20260903202526 61 105 1.0 4.0 0.00 0.37 0.03 63 1009.8
20260903202026 61 197 0.0 4.0 0.00 0.37 0.03 64 1009.8
20260903201547 61 0 0.0 6.0 0.00 0.37 0.03 64 1009.8
20260903201024 61 0 0.0 6.0 0.00 0.37 0.03 61 1009.8
20260903200524 61 0 1.0 6.0 0.00 0.37 0.03 61 1009.8
20260903200046 61 98 0.0 7.0 0.00 0.37 0.03 59 1009.8
20260903195524 61 127 3.0 7.0 0.00 0.37 0.03 59 1009.9
20260903195023 61 109 0.0 6.0 0.00 0.37 0.03 60 1009.9
20260903194548 61 96 2.0 7.0 0.00 0.37 0.03 62 1009.9
20260903194023 61 121 1.0 10.0 0.00 0.37 0.03 58 1009.8
20260903193527 61 0 1.0 10.0 0.00 0.37 0.03 61 1009.8
20260903193055 62 115 0.0 7.0 0.00 0.37 0.03 59 1009.7
20260903192523 61 117 0.0 8.0 0.00 0.37 0.03 63 1009.8
20260903192022 61 192 2.0 8.0 0.00 0.37 0.03 60 1009.9
20260903191546 61 118 1.0 6.0 0.00 0.37 0.03 65 1009.8
20260903191027 60 113 1.0 6.0 0.00 0.37 0.03 69 1009.8
20260903190524 60 144 2.0 5.0 0.00 0.37 0.03 67 1009.8
20260903190048 60 0 0.0 7.0 0.00 0.37 0.03 72 1009.8
20260903185524 59 95 2.0 7.0 0.00 0.37 0.03 69 1009.8
20260903185027 59 0 1.0 6.0 0.00 0.37 0.03 78 1009.7
20260903184551 59 0 2.0 6.0 0.00 0.37 0.03 76 1009.7
20260903184029 58 133 0.0 3.0 0.00 0.37 0.03 80 1009.7
20260903183523 58 274 1.0 6.0 0.00 0.37 0.03 81 1009.7
20260903183040 58 126 0.0 10.0 0.00 0.37 0.03 81 1009.7
20260903182527 58 94 1.0 10.0 0.00 0.37 0.03 81 1009.7
20260903182023 58 0 3.0 10.0 0.00 0.37 0.03 79 1009.7
20260903181548 59 115 3.0 8.0 0.00 0.37 0.03 75 1009.6
20260903181024 59 112 1.0 7.0 0.00 0.37 0.03 77 1009.5
20260903180524 58 112 2.0 7.0 0.00 0.37 0.03 80 1009.7
20260903180047 58 0 1.0 4.0 0.00 0.37 0.03 79 1009.7
20260903175524 57 140 1.0 4.0 0.00 0.37 0.03 85 1009.7
20260903175024 57 0 2.0 8.0 0.00 0.37 0.03 84 1009.7
20260903174541 57 117 3.0 8.0 0.00 0.37 0.03 84 1009.7
20260903174025 57 0 2.0 7.0 0.00 0.37 0.03 85 1009.6
20260903173525 57 105 3.0 7.0 0.00 0.37 0.03 83 1009.6
20260903173051 56 138 1.0 6.0 0.00 0.37 0.03 86 1009.7
20260903172523 56 107 2.0 6.0 0.00 0.37 0.03 86 1009.6
20260903172024 56 0 0.0 3.0 0.00 0.37 0.03 87 1009.6
20260903171546 56 0 0.0 4.0 0.00 0.37 0.03 89 1009.7
20260903171023 56 111 0.0 4.0 0.00 0.37 0.03 88 1009.6
20260903170525 56 106 0.0 3.0 0.00 0.37 0.03 90 1009.6
20260903170057 55 0 0.0 3.0 0.00 0.37 0.03 89 1009.5
20260903165523 54 0 1.0 3.0 0.00 0.37 0.03 88 1009.5
20260903165024 54 130 1.0 3.0 0.00 0.37 0.03 89 1009.6
20260903164543 54 193 0.0 3.0 0.00 0.37 0.03 90 1009.6
20260903164025 53 106 0.0 3.0 0.00 0.37 0.03 91 1009.7
20260903163526 53 212 0.0 2.0 0.00 0.37 0.03 93 1009.9
20260903163048 52 0 0.0 2.0 0.00 0.37 0.03 93 1009.8
20260903162527 52 0 0.0 2.0 0.00 0.37 0.03 93 1009.9
20260903162027 52 0 0.0 2.0 0.01 0.37 0.03 93 1009.9
20260903161546 51 0 0.0 1.0 0.01 0.37 0.03 93 1010.0
20260903161024 51 0 0.0 1.0 0.01 0.37 0.03 93 1010.1
20260903160526 51 0 0.0 1.0 0.01 0.37 0.03 93 1010.1
20260903160055 51 0 0.0 2.0 0.01 0.37 0.03 94 1010.1
20260903155524 51 0 0.0 2.0 0.01 0.37 0.03 94 1010.0
20260903155023 51 0 0.0 1.0 0.01 0.37 0.03 94 1009.9
20260903154555 50 0 0.0 2.0 0.01 0.37 0.03 94 1009.9
20260903154034 50 0 0.0 2.0 0.01 0.37 0.03 95 1009.9
20260903153525 50 0 0.0 2.0 0.01 0.37 0.03 95 1010.0
20260903153047 50 0 0.0 2.0 0.01 0.37 0.03 95 1010.0
20260903152526 50 263 0.0 2.0 0.00 0.36 0.02 95 1010.0
20260903152030 50 0 0.0 1.0 0.00 0.36 0.02 95 1010.0
20260903151546 50 0 0.0 2.0 0.00 0.36 0.02 95 1009.9
20260903151024 50 0 0.0 2.0 0.00 0.36 0.02 95 1009.9
20260903150526 50 0 0.0 2.0 0.00 0.36 0.02 95 1010.0
20260903145530 50 113 0.0 2.0 0.00 0.36 0.02 94 1009.9
20260903145023 50 103 0.0 1.0 0.00 0.36 0.02 94 1009.9
20260903144550 50 0 0.0 2.0 0.00 0.36 0.02 94 1009.9
20260903144027 50 0 0.0 2.0 0.00 0.36 0.02 94 1009.8
20260903143526 50 0 0.0 2.0 0.00 0.36 0.02 94 1009.7
20260903143045 49 105 0.0 2.0 0.00 0.36 0.02 94 1009.7
20260903142523 49 0 0.0 0.0 0.00 0.36 0.02 95 1009.7
20260903142025 49 0 0.0 0.0 0.00 0.36 0.02 95 1009.7
20260903141545 49 0 0.0 1.0 0.00 0.36 0.02 95 1009.6
20260903141023 49 0 0.0 1.0 0.00 0.36 0.02 95 1009.7
20260903140523 49 0 0.0 1.0 0.01 0.36 0.02 94 1009.6
20260903140052 49 0 0.0 0.0 0.01 0.36 0.02 95 1009.6
20260903135522 49 0 0.0 0.0 0.01 0.36 0.02 95 1009.6
20260903135026 49 0 0.0 0.0 0.01 0.36 0.02 95 1009.6
20260903134547 49 0 0.0 0.0 0.01 0.36 0.02 95 1009.5
20260903134022 49 0 0.0 3.0 0.01 0.36 0.02 95 1009.6
20260903133525 48 0 0.0 3.0 0.01 0.36 0.02 95 1009.5
20260903133048 48 0 0.0 1.0 0.01 0.36 0.02 95 1009.6
20260903132523 48 0 0.0 0.0 0.01 0.36 0.02 95 1009.5
20260903132022 48 0 0.0 1.0 0.01 0.36 0.02 95 1009.4
20260903131602 48 0 0.0 1.0 0.01 0.36 0.02 95 1009.4
20260903131025 49 0 0.0 1.0 0.01 0.36 0.02 95 1009.4
20260903130526 48 0 0.0 2.0 0.00 0.35 0.01 95 1009.2
20260903130055 49 0 0.0 2.0 0.00 0.35 0.01 94 1009.2
20260903125524 48 0 0.0 3.0 0.00 0.35 0.01 94 1009.2
20260903125024 49 0 0.0 4.0 0.00 0.35 0.01 94 1009.4
20260903124552 48 0 0.0 4.0 0.00 0.35 0.01 94 1009.3
20260903124028 48 0 0.0 4.0 0.00 0.35 0.01 94 1009.1
20260903123524 48 0 0.0 1.0 0.00 0.35 0.01 94 1009.2
20260903123047 48 0 0.0 1.0 0.00 0.35 0.01 94 1009.2
20260903122522 48 0 0.0 1.0 0.00 0.35 0.01 94 1009.2
20260903122024 48 0 0.0 1.0 0.00 0.35 0.01 94 1009.2
20260903121556 49 0 0.0 1.0 0.01 0.35 0.01 94 1009.2
20260903121019 49 0 0.0 2.0 0.01 0.35 0.01 93 1009.2
20260903120523 48 0 0.0 2.0 0.01 0.35 0.01 94 1009.2
20260903120053 48 0 0.0 2.0 0.01 0.35 0.01 94 1009.3
20260903115523 48 0 0.0 2.0 0.01 0.35 0.01 94 1009.3
20260903115026 48 0 0.0 1.0 0.01 0.35 0.01 94 1009.2
20260903114548 48 0 0.0 2.0 0.01 0.35 0.01 94 1009.2
20260903114022 48 0 0.0 2.0 0.01 0.35 0.01 95 1009.3
20260903113524 48 0 0.0 2.0 0.01 0.35 0.01 95 1009.2
20260903113048 48 0 0.0 1.0 0.01 0.35 0.01 95 1009.2
20260903112525 48 0 0.0 0.0 0.01 0.35 0.01 94 1009.2
20260903112025 48 0 0.0 1.0 0.01 0.35 0.01 94 1009.2
20260903111547 49 0 0.0 1.0 0.00 0.34 0.00 94 1009.2
20260903111023 49 0 0.0 4.0 0.00 0.34 0.00 94 1009.0
20260903110523 48 0 0.0 4.0 0.00 0.34 0.00 94 1009.0
20260903110040 48 0 0.0 4.0 0.00 0.34 0.00 94 1009.1
20260903105528 48 0 0.0 2.0 0.00 0.37 0.00 94 1009.0
20260903105023 48 0 0.0 2.0 0.00 0.37 0.00 94 1009.0
20260903104556 48 0 0.0 2.0 0.00 0.37 0.00 94 1009.1
20260903104024 48 0 0.0 2.0 0.00 0.37 0.00 94 1009.0
20260903103525 48 0 0.0 2.0 0.00 0.37 0.00 94 1009.0
20260903103046 49 0 0.0 2.0 0.00 0.37 0.00 94 1009.0
20260903102526 49 0 0.0 2.0 0.00 0.37 0.00 95 1009.1
20260903102023 49 0 0.0 2.0 0.00 0.37 0.00 95 1009.1